#timestamp,LO_Frequency,Hit,StdDev 
1592845215.4,286046998.7,N
1592845235.2,286046998.1,N
1592845255.0,286046996.5,N
1592845255.9,286046996.5,N
1592845275.8,286046999.1,N
1592845295.6,286047001.2,N
1592845315.5,286047000.9,N
1592845335.3,286046998.6,N
1592845355.1,286046996.7,N
1592845375.9,286046998.8,N
1592845395.7,286047000.8,N
1592845415.5,286047000.4,N
1592845435.4,286046998.6,N
1592845455.2,286047000.8,N
1592845475.1,286046999.8,N
1592845476.0,286046999.8,N
1592845495.8,286047000.2,N
1592845515.6,286047002.3,N
1592845535.5,286047001.7,N
1592845555.3,286047001.6,N
1592845575.1,286047002.6,N
1592845595.9,286047001.9,N
1592845615.7,286047001.5,N
1592845635.6,286047001.3,N
1592845655.4,286047001.6,N
1592845675.2,286047001.9,N
1592845695.1,286047001.8,N
1592845696.0,286047001.8,N
1592845715.8,286047004.3,N
1592845735.6,286047001.5,N
1592845755.5,286047002.1,N
1592845775.3,286047002.0,N
1592845795.2,286047001.7,N
1592845815.9,286047001.6,N
1592845835.7,286047002.1,N
1592845855.6,286047002.2,N
1592845875.4,286047004.2,N
1592845895.2,286047001.7,N
1592845915.1,286047002.0,N
1592845916.0,286047002.0,N
1592845935.8,286047002.1,N
1592845955.7,286047001.6,N
1592845975.5,286047002.5,N
1592845995.3,286047002.5,N
1592846015.2,286047002.0,N
1592846035.0,286047001.4,N
1592846035.9,286047001.4,N
1592846055.8,286047002.1,Y
1592846075.6,286046999.7,P
1592846095.4,286046999.8,N
1592846115.3,286047000.9,N
1592846135.1,286047001.1,N
1592846155.8,286047002.6,N
1592846175.7,286046999.7,N
1592846195.5,286046998.8,N
1592846215.4,286046999.3,N
1592846235.2,286046997.2,N
1592846255.0,286046998.1,N
1592846255.9,286046998.1,N
1592846275.8,286046998.5,N
1592846295.6,286047002.7,N
1592846315.5,286047001.9,N
1592846335.3,286047002.7,N
1592846355.1,286047002.6,N
1592846375.9,286047002.3,N
1592846395.7,286047001.8,N
1592846415.5,286047001.5,N
1592846435.4,286047001.5,N
1592846455.2,286047001.4,N
1592846475.0,286047001.9,N
1592846476.0,286047001.9,N
1592846495.8,286047004.4,N
1592846515.6,286047004.0,N
1592846535.5,286047000.1,N
1592846555.3,286047001.1,N
1592846575.1,286046998.9,N
1592846595.9,286046998.5,N
1592846615.7,286047000.3,N
1592846635.5,286047000.1,N
1592846655.4,286047000.9,N
1592846675.2,286047000.1,N
1592846695.1,286047001.9,N
1592846696.0,286047001.9,N
1592846715.8,286047001.4,N
1592846735.6,286047002.4,N
1592846755.5,286046999.9,N
1592846775.3,286046998.7,N
1592846795.1,286047000.7,N
1592846815.9,286047000.8,N
1592846835.7,286046998.6,N
1592846855.6,286047001.2,N
1592846875.4,286046999.3,N
1592846895.2,286046998.7,N
1592846915.1,286047000.9,N
1592846916.0,286047000.9,N
1592846935.8,286046998.3,N
1592846955.6,286046999.6,N
1592846975.5,286046996.6,N
1592846995.3,286047000.3,N
1592847015.2,286046999.8,N
1592847035.9,286047000.6,N
1592847055.7,286047000.5,N
1592847075.6,286046999.8,N
1592847095.4,286047000.1,N
1592847115.2,286047001.2,N
1592847135.1,286047000.3,N
1592847136.0,286047000.3,N
1592847155.8,286046998.1,N
1592847175.7,286047000.6,N
1592847195.5,286046998.7,N
1592847215.3,286046998.4,N
1592847235.2,286046998.7,N
1592847255.0,286047001.2,N
1592847255.9,286047001.2,N
1592847275.8,286047000.4,N
1592847295.6,286046998.2,N
1592847315.4,286046998.8,N
1592847335.3,286046998.7,N
1592847355.1,286046996.5,Y
1592847375.9,286046999.1,P
1592847395.7,286046999.0,P
1592847415.5,286047000.4,N
1592847435.4,286046998.6,N
1592847455.2,286046998.5,N
1592847475.0,286047001.2,N
1592847476.0,286047001.2,N
1592847495.8,286047000.7,N
1592847515.6,286046999.2,N
1592847535.5,286047001.0,N
1592847555.3,286046998.1,N
1592847575.1,286047000.4,N
1592847595.9,286046998.3,N
1592847615.7,286046998.2,N
1592847635.5,286046998.7,N
1592847655.4,286046998.1,N
1592847675.2,286046997.0,N
1592847695.1,286046997.6,N
1592847696.0,286046997.6,N
1592847715.8,286046997.2,N
1592847735.6,286046995.5,Y
1592847755.5,286046995.0,P
1592847775.3,286046994.9,N
1592847795.1,286046995.0,N
1592847815.9,286046998.0,N
1592847835.7,286046999.2,N
1592847855.6,286046998.4,N
1592847875.4,286047000.8,N
1592847895.2,286046999.0,N
1592847915.1,286046998.6,N
1592847916.0,286046998.6,N
1592847935.8,286047000.7,N
1592847955.6,286047000.9,N
1592847975.5,286046998.4,N
1592847995.3,286046997.0,N
1592848015.2,286046999.1,N
1592848035.9,286046998.4,N
1592848055.7,286046996.5,N
1592848075.6,286046997.1,N
1592848095.4,286046997.2,N
1592848115.2,286046999.2,N
1592848135.1,286046997.0,N
1592848136.0,286046997.0,N
1592848155.8,286046999.1,N
1592848175.7,286047001.2,N
1592848195.5,286047000.5,N
1592848215.3,286047000.8,N
1592848235.2,286047000.6,N
1592848255.0,286047000.8,N
1592848255.9,286047000.8,N
1592848275.8,286047000.7,N
1592848295.6,286046998.6,N
1592848315.4,286047001.2,N
1592848335.3,286046999.8,N
1592848355.1,286047000.3,N
1592848356.0,286047000.3,N
1592848375.8,286047001.1,N
1592848395.7,286047002.8,N
1592848415.5,286047002.7,N
1592848435.3,286047001.5,N
1592848455.2,286047000.1,N
1592848475.0,286047001.9,N
1592848475.9,286047001.9,N
1592848495.8,286047002.7,N
1592848515.6,286047002.6,N
1592848535.4,286047000.3,N
1592848555.3,286047002.4,N
1592848575.1,286047000.5,N
1592848595.9,286047001.8,N
1592848615.7,286047000.0,N
1592848635.5,286047000.7,N
1592848655.4,286047000.7,N
1592848675.2,286047000.9,N
1592848695.0,286047000.0,N
1592848695.9,286047000.0,N
1592848715.8,286047000.4,N
1592848735.6,286047000.8,N
1592848755.5,286047000.0,N
1592848775.3,286047000.5,N
1592848795.1,286046999.8,N
